�N����,����,�~����,�C��,���x,�C��,����,���ϕ���,�ő�u�ԕ���,�ő厞����,���˗�,�I�_���x,�n�����x,�ő啗���N��,DTYPE
"17/09/02","00:10",0.0,21.9,76.2,1000.5,304.2,1.5,3.2,320.7,0.00,17.6,24.5,"00:01:36",1
"17/09/02","00:20",0.0,21.9,76.3,1000.0,296.0,1.2,2.2,332.2,0.00,17.6,24.6,"00:18:32",1
"17/09/02","00:30",0.0,21.7,77.4,1000.3,305.3,0.7,1.2,320.9,0.00,17.6,24.5,"00:23:04",1
"17/09/02","00:40",0.0,21.3,78.7,999.8,319.2,0.7,1.3,330.1,0.00,17.5,24.5,"00:36:56",1
"17/09/02","00:50",0.0,20.9,79.9,1000.3,330.3,0.8,3.2,338.7,0.00,17.3,24.4,"00:49:20",1
"17/09/02","01:00",0.0,21.0,80.1,1000.0,297.8,0.8,1.3,297.1,0.00,17.5,24.4,"00:52:16",1
"17/09/02","01:10",0.0,21.2,80.0,1000.3,317.0,1.1,2.2,325.3,0.00,17.7,24.1,"01:09:44",1
"17/09/02","01:20",0.0,21.1,80.3,1000.5,310.6,0.6,1.7,347.8,0.00,17.6,24.3,"01:13:12",1
"17/09/02","01:30",0.0,20.7,81.4,1000.3,333.2,0.6,1.7,352.0,0.00,17.4,24.1,"01:29:52",1
"17/09/02","01:40",0.0,20.6,82.2,1000.3,331.7,1.2,2.4,318.7,0.00,17.5,24.1,"01:36:48",1
"17/09/02","01:50",0.0,20.6,82.3,1000.3,330.1,1.1,2.1,328.3,0.00,17.5,24.0,"01:42:16",1
"17/09/02","02:00",0.0,20.6,82.5,1000.3,338.9,1.2,3.3,348.1,0.00,17.6,24.1,"01:56:32",1
"17/09/02","02:10",0.0,20.4,82.7,1000.0,336.4,1.2,2.0,338.6,0.00,17.4,23.7,"02:07:28",1
"17/09/02","02:20",0.0,20.2,83.5,1000.3,333.6,1.5,2.1,340.2,0.00,17.4,23.8,"02:13:52",1
"17/09/02","02:30",0.0,20.1,84.1,1000.0,331.5,1.2,2.5,330.4,0.00,17.4,23.8,"02:20:24",1
"17/09/02","02:40",0.0,20.0,84.7,999.8,340.1,1.3,2.5,345.3,0.00,17.4,23.6,"02:32:56",1
"17/09/02","02:50",0.0,20.0,85.0,999.8,333.4,1.1,2.4,342.8,0.00,17.4,23.6,"02:45:20",1
"17/09/02","03:00",0.0,20.0,85.1,1000.3,341.3,1.1,2.2,338.2,0.00,17.5,23.6,"02:51:20",1
"17/09/02","03:10",0.0,19.9,85.7,1000.3,332.6,1.2,2.4,336.4,0.00,17.5,23.6,"03:08:52",1
"17/09/02","03:20",0.0,19.8,85.8,1000.5,339.5,1.1,1.8,345.5,0.00,17.4,23.5,"03:10:08",1
"17/09/02","03:30",0.0,19.7,86.1,1000.3,336.7,1.0,1.8,336.8,0.00,17.4,23.2,"03:25:52",1
"17/09/02","03:40",0.0,19.4,86.5,1000.5,324.4,1.1,1.7,341.9,0.00,17.1,23.4,"03:37:44",1
"17/09/02","03:50",0.0,18.9,87.1,1000.5,314.3,1.5,1.8,315.0,0.00,16.7,23.4,"03:42:16",1
"17/09/02","04:00",0.0,18.6,88.5,1000.5,312.9,1.3,1.8,328.7,0.00,16.7,23.1,"03:54:32",1
"17/09/02","04:10",0.0,18.5,89.4,1000.8,318.6,1.2,2.6,333.7,0.00,16.8,23.1,"04:00:48",1
"17/09/02","04:20",0.0,18.4,90.5,1001.0,313.1,1.3,2.6,336.8,0.00,16.9,23.1,"04:19:28",1
"17/09/02","04:30",0.0,18.8,90.8,1000.8,323.7,1.6,2.5,332.9,0.00,17.3,23.0,"04:23:36",1
"17/09/02","04:40",0.0,19.1,90.2,1000.5,313.7,1.6,3.2,325.4,0.00,17.5,23.0,"04:30:32",1
"17/09/02","04:50",0.0,19.2,89.1,1001.0,324.0,1.3,2.4,337.4,0.00,17.4,22.9,"04:41:20",1
"17/09/02","05:00",0.0,19.1,89.0,1000.8,324.8,1.3,2.0,328.1,0.00,17.3,23.0,"04:58:56",1
"17/09/02","05:10",0.0,19.0,89.4,1001.2,322.5,1.6,2.4,333.6,0.00,17.3,22.8,"05:08:00",1
"17/09/02","05:20",0.0,19.0,89.3,1001.0,323.2,1.7,3.1,334.0,0.00,17.2,22.8,"05:11:52",1
"17/09/02","05:30",0.0,19.1,88.9,1001.2,327.1,1.2,1.9,320.5,0.00,17.3,22.8,"05:22:24",1
"17/09/02","05:40",0.0,18.9,89.0,1001.2,319.3,1.6,2.4,327.8,0.00,17.1,22.9,"05:39:20",1
"17/09/02","05:50",0.0,18.9,89.4,1001.0,313.5,1.5,2.0,330.6,0.00,17.2,22.6,"05:40:40",1
"17/09/02","06:00",0.0,19.0,89.6,1001.5,319.8,1.2,2.8,335.9,0.00,17.3,22.6,"05:50:16",1
"17/09/02","06:10",0.0,19.4,89.1,1001.5,327.6,1.3,2.1,326.3,0.00,17.6,22.7,"06:09:44",1
"17/09/02","06:20",0.0,19.9,88.4,1001.5,325.8,1.6,2.5,326.0,0.01,18.0,22.8,"06:15:20",1
"17/09/02","06:30",0.0,20.7,86.7,1001.5,333.1,1.8,3.2,344.2,0.02,18.4,22.8,"06:26:24",1
"17/09/02","06:40",0.0,21.7,82.7,1001.5,332.7,2.0,3.5,334.0,0.03,18.7,22.6,"06:32:40",1
"17/09/02","06:50",0.0,22.4,79.4,1001.7,331.4,1.7,3.2,338.2,0.05,18.7,22.8,"06:41:28",1
"17/09/02","07:00",0.0,23.0,77.0,1001.5,339.7,1.6,4.0,341.5,0.07,18.8,22.8,"06:54:24",1
"17/09/02","07:10",0.0,24.1,72.5,1001.5,322.6,0.7,1.8,333.9,0.10,18.9,23.1,"07:09:04",1
"17/09/02","07:20",0.0,24.4,71.5,1001.5,315.6,1.3,2.4,348.0,0.11,19.0,23.0,"07:12:40",1
"17/09/02","07:30",0.0,24.8,69.2,1001.5,299.2,0.8,3.1,336.8,0.13,18.8,23.2,"07:24:48",1
"17/09/02","07:40",0.0,25.3,65.6,1001.2,306.1,0.6,2.1,347.6,0.15,18.4,23.5,"07:32:00",1
"17/09/02","07:50",0.0,25.7,60.1,1001.0,99.3,0.7,4.1,35.1,0.18,17.4,23.8,"07:49:04",1
"17/09/02","08:00",0.0,25.6,64.7,1000.8,352.0,1.0,3.5,35.6,0.18,18.5,23.7,"07:50:48",1
"17/09/02","08:10",0.0,25.4,58.3,1000.8,7.4,2.2,8.8,322.0,0.22,16.7,23.7,"08:08:56",1
"17/09/02","08:20",0.0,26.0,57.4,1000.5,10.1,1.7,4.5,18.4,0.25,17.0,23.8,"08:11:20",1
"17/09/02","08:30",0.0,26.1,56.4,1000.3,4.0,2.7,6.2,310.1,0.29,16.8,24.1,"08:24:48",1
"17/09/02","08:40",0.0,26.7,55.7,1000.5,10.3,2.2,6.8,351.8,0.32,17.2,24.2,"08:31:44",1
"17/09/02","08:50",0.0,27.3,53.7,1000.0,15.3,1.6,4.2,346.4,0.36,17.1,24.3,"08:46:56",1
"17/09/02","09:00",0.0,27.2,53.4,1000.3,36.9,2.0,5.8,107.1,0.38,17.0,24.5,"08:57:12",1
"17/09/02","09:10",0.0,27.3,51.7,1000.0,17.9,1.8,4.5,29.2,0.39,16.5,24.7,"09:04:48",1
"17/09/02","09:20",0.0,27.6,49.7,1000.0,16.8,1.6,4.4,22.6,0.41,16.2,24.8,"09:13:12",1
"17/09/02","09:30",0.0,27.6,50.5,999.8,10.4,2.1,3.9,355.0,0.43,16.4,25.1,"09:24:08",1
"17/09/02","09:40",0.0,26.6,55.5,999.6,359.2,2.6,6.4,340.8,0.29,17.0,25.0,"09:33:04",1
"17/09/02","09:50",0.0,28.0,51.5,999.6,15.0,2.1,5.1,345.0,0.45,17.1,25.6,"09:41:12",1
"17/09/02","10:00",0.0,28.5,50.5,1000.0,12.6,2.1,5.6,72.7,0.51,17.3,25.7,"09:55:44",1
"17/09/02","10:10",0.0,26.7,56.8,1000.3,359.2,2.6,5.2,341.2,0.34,17.5,25.9,"10:09:04",1
"17/09/02","10:20",0.0,26.8,59.7,999.6,348.1,3.1,6.2,338.5,0.34,18.3,26.0,"10:10:24",1
"17/09/02","10:30",0.0,27.4,56.4,999.8,343.7,2.8,8.8,346.3,0.53,18.0,26.2,"10:29:04",1
"17/09/02","10:40",0.0,27.7,54.9,999.6,3.2,2.3,6.6,3.0,0.53,17.9,26.7,"10:30:08",1
"17/09/02","10:50",0.0,27.6,56.4,999.6,24.1,2.5,6.3,311.7,0.55,18.2,26.7,"10:41:36",1
"17/09/02","11:00",0.0,28.1,54.8,999.6,357.6,2.2,4.5,345.9,0.51,18.2,27.0,"10:57:04",1
"17/09/02","11:10",0.0,27.7,56.4,999.8,338.6,2.5,5.7,344.4,0.47,18.3,27.2,"11:09:28",1
"17/09/02","11:20",0.0,27.3,59.2,999.1,332.4,3.9,8.0,337.2,0.51,18.7,27.3,"11:15:04",1
"17/09/02","11:30",0.0,27.2,58.6,999.3,8.9,2.5,6.5,336.0,0.45,18.4,27.5,"11:25:12",1
"17/09/02","11:40",0.0,27.8,59.6,999.1,351.6,2.7,6.5,346.1,0.49,19.3,27.9,"11:33:36",1
"17/09/02","11:50",0.0,27.7,56.5,999.3,15.5,2.5,6.5,336.9,0.57,18.3,28.3,"11:44:32",1
"17/09/02","12:00",0.0,28.0,57.0,999.3,3.7,2.1,5.0,347.0,0.47,18.7,28.5,"11:59:12",1
"17/09/02","12:10",0.0,27.6,57.0,999.1,343.8,3.7,8.9,341.4,0.56,18.4,28.6,"12:07:12",1
"17/09/02","12:20",0.0,28.0,56.4,998.9,339.2,3.0,6.6,330.8,0.56,18.6,28.7,"12:19:44",1
"17/09/02","12:30",0.0,27.7,57.7,998.6,340.4,3.2,6.4,317.6,0.49,18.6,29.0,"12:27:12",1
"17/09/02","12:40",0.0,27.9,56.8,998.9,342.3,3.1,7.9,356.3,0.49,18.6,29.0,"12:33:52",1
"17/09/02","12:50",0.0,27.4,57.3,998.4,336.8,4.1,11.8,325.9,0.53,18.3,29.2,"12:48:48",1
"17/09/02","13:00",0.0,27.4,57.6,998.6,342.6,3.6,8.0,327.2,0.54,18.3,29.2,"12:57:52",1
"17/09/02","13:10",0.0,27.6,57.3,997.9,346.3,3.7,8.7,347.5,0.55,18.4,29.3,"13:01:20",1
"17/09/02","13:20",0.0,28.1,55.8,998.4,336.2,3.7,8.1,30.3,0.54,18.5,29.7,"13:12:08",1
"17/09/02","13:30",0.0,27.9,55.5,998.9,336.2,3.5,7.3,331.0,0.54,18.2,29.7,"13:22:24",1
"17/09/02","13:40",0.0,28.0,55.1,998.6,341.0,3.4,8.3,317.6,0.52,18.2,29.8,"13:31:28",1
"17/09/02","13:50",0.0,28.2,55.0,998.4,340.2,3.0,7.2,341.8,0.51,18.3,29.9,"13:49:52",1
"17/09/02","14:00",0.0,27.7,54.8,998.6,343.9,4.0,8.3,323.2,0.49,17.8,30.0,"13:52:16",1
"17/09/02","14:10",0.0,27.8,53.8,998.2,345.6,4.0,8.0,343.8,0.48,17.6,29.8,"14:06:56",1
"17/09/02","14:20",0.0,27.9,53.5,998.2,1.1,3.1,7.8,339.2,0.46,17.6,29.7,"14:12:24",1
"17/09/02","14:30",0.0,27.9,52.9,997.9,350.5,3.2,6.8,337.1,0.45,17.5,30.0,"14:21:28",1
"17/09/02","14:40",0.0,27.7,52.8,997.9,345.4,3.6,6.6,6.1,0.43,17.2,29.7,"14:33:20",1
"17/09/02","14:50",0.0,28.4,52.3,998.2,357.7,2.3,6.2,352.4,0.42,17.7,29.7,"14:40:24",1
"17/09/02","15:00",0.0,27.7,54.0,997.9,357.7,2.2,5.8,342.2,0.29,17.6,29.6,"14:56:00",1
"17/09/02","15:10",0.0,28.2,54.1,998.2,344.2,2.2,5.0,352.8,0.35,18.1,29.7,"15:01:52",1
"17/09/02","15:20",0.0,28.2,52.8,998.2,354.3,1.8,5.1,320.8,0.35,17.7,29.7,"15:10:02",1
"17/09/02","15:30",0.0,27.5,52.9,997.9,334.6,3.1,5.8,334.0,0.31,17.1,29.6,"15:29:36",1
"17/09/02","15:40",0.0,27.8,53.0,997.7,340.9,3.0,6.4,324.3,0.29,17.4,29.5,"15:39:28",1
"17/09/02","15:50",0.0,27.9,51.2,997.7,349.7,2.2,4.2,345.0,0.23,16.9,29.3,"15:40:48",1
"17/09/02","16:00",0.0,27.5,53.3,998.2,343.9,3.4,6.3,331.1,0.22,17.2,29.2,"15:59:12",1
"17/09/02","16:10",0.0,27.9,53.1,998.2,344.0,2.6,4.7,346.1,0.25,17.5,29.2,"16:09:04",1
"17/09/02","16:20",0.0,28.3,49.8,998.2,338.8,2.3,4.7,303.5,0.23,16.9,29.2,"16:10:40",1
"17/09/02","16:30",0.0,28.0,51.1,998.4,343.0,2.5,5.2,23.6,0.18,17.0,29.1,"16:29:28",1
"17/09/02","16:40",0.0,27.5,51.2,998.4,347.4,2.2,4.8,336.9,0.13,16.6,28.9,"16:36:16",1
"17/09/02","16:50",0.0,26.8,53.2,998.6,1.5,1.8,4.5,36.5,0.06,16.5,28.6,"16:41:20",1
"17/09/02","17:00",0.0,26.6,55.0,998.4,341.6,1.8,4.1,5.2,0.06,16.9,28.3,"16:53:44",1
"17/09/02","17:10",0.0,26.7,55.4,998.4,333.2,2.5,5.4,359.6,0.08,17.1,28.2,"17:01:44",1
"17/09/02","17:20",0.0,26.5,55.6,998.9,340.9,2.2,4.1,333.8,0.05,16.9,28.2,"17:16:24",1
"17/09/02","17:30",0.0,26.0,57.8,999.1,327.9,2.0,4.4,353.7,0.03,17.1,28.0,"17:21:52",1
"17/09/02","17:40",0.0,25.2,59.3,999.1,331.5,2.1,3.7,308.5,0.00,16.7,27.8,"17:32:00",1
"17/09/02","17:50",0.0,24.7,60.2,999.1,322.1,2.0,4.7,337.9,0.00,16.5,27.5,"17:41:28",1
"17/09/02","18:00",0.0,24.4,61.9,999.6,324.4,2.0,3.5,336.9,0.00,16.7,27.4,"17:58:00",1
"17/09/02","18:10",0.0,24.1,62.8,999.3,326.5,1.8,3.3,329.7,0.00,16.6,27.2,"18:03:28",1
"17/09/02","18:20",0.0,23.9,64.3,999.6,329.8,2.1,3.6,341.0,0.00,16.8,27.1,"18:13:36",1
"17/09/02","18:30",0.0,23.7,65.0,999.3,322.7,1.8,3.3,343.9,0.00,16.8,27.0,"18:22:40",1
"17/09/02","18:40",0.0,23.5,66.5,999.8,327.2,1.5,2.6,333.5,0.00,16.9,27.0,"18:38:40",1
"17/09/02","18:50",0.0,23.4,67.1,1000.0,302.2,1.5,3.5,340.9,0.00,17.0,26.8,"18:40:40",1
"17/09/02","19:00",0.0,23.5,68.4,1000.3,315.3,1.5,2.5,330.4,0.00,17.4,26.7,"18:55:20",1
"17/09/02","19:10",0.0,23.5,69.8,1000.5,324.0,1.3,2.7,322.3,0.00,17.7,26.5,"19:09:20",1
"17/09/02","19:20",0.0,23.4,70.5,1000.5,303.2,1.3,2.5,335.7,0.00,17.8,26.4,"19:10:40",1
"17/09/02","19:30",0.0,23.4,71.4,1000.5,297.5,1.3,2.6,243.6,0.00,18.0,26.3,"19:23:20",1
"17/09/02","19:40",0.0,23.0,72.4,1000.5,305.4,1.2,2.1,338.8,0.00,17.8,26.2,"19:31:28",1
"17/09/02","19:50",0.0,22.6,73.7,1000.3,300.0,1.1,2.2,340.5,0.00,17.7,26.2,"19:47:52",1
"17/09/02","20:00",0.0,21.9,76.1,1000.8,309.1,1.0,1.8,304.2,0.00,17.5,26.0,"19:50:56",1
"17/09/02","20:10",0.0,21.4,79.2,1000.5,320.7,1.2,2.0,328.7,0.00,17.7,25.9,"20:02:00",1
"17/09/02","20:20",0.0,21.2,80.8,1000.8,332.1,1.2,2.2,322.3,0.00,17.8,25.7,"20:12:16",1
"17/09/02","20:30",0.0,20.9,81.7,1001.0,314.6,1.0,1.8,332.7,0.00,17.7,25.6,"20:20:48",1
"17/09/02","20:40",0.0,20.6,82.6,1001.5,310.1,0.8,1.7,334.0,0.00,17.6,25.3,"20:30:08",1
"17/09/02","20:50",0.0,20.6,83.1,1001.5,301.3,1.0,1.6,328.4,0.00,17.7,25.4,"20:42:48",1
"17/09/02","21:00",0.0,20.6,82.9,1001.7,330.4,1.2,1.7,353.8,0.00,17.6,25.2,"20:53:12",1
"17/09/02","21:10",0.0,20.3,83.8,1001.7,324.9,1.1,1.6,338.3,0.00,17.5,25.1,"21:09:12",1
"17/09/02","21:20",0.0,20.1,84.4,1001.7,335.2,1.0,1.4,341.2,0.00,17.4,25.1,"21:18:00",1
"17/09/02","21:30",0.0,20.0,85.0,1001.7,327.5,1.1,1.4,343.6,0.00,17.4,24.7,"21:21:04",1
"17/09/02","21:40",0.0,19.9,85.7,1001.7,328.0,1.0,1.7,317.5,0.00,17.5,24.8,"21:30:56",1
"17/09/02","21:50",0.0,19.9,86.0,1001.7,322.4,1.0,1.7,357.6,0.00,17.5,24.5,"21:48:56",1
"17/09/02","22:00",0.0,19.9,86.0,1001.5,331.3,1.2,2.2,328.6,0.00,17.5,24.6,"21:58:40",1
"17/09/02","22:10",0.0,20.1,85.6,1001.9,331.4,1.3,2.4,338.8,0.00,17.7,24.5,"22:03:28",1
"17/09/02","22:20",0.0,20.4,84.9,1001.7,330.8,2.0,3.2,325.8,0.00,17.8,24.3,"22:19:52",1
"17/09/02","22:30",0.0,21.0,83.2,1002.2,335.4,1.8,3.2,344.3,0.00,18.1,24.5,"22:26:32",1
"17/09/02","22:40",0.0,21.3,81.7,1001.9,326.1,2.2,3.4,323.5,0.00,18.1,24.5,"22:35:28",1
"17/09/02","22:50",0.0,21.6,80.0,1001.7,328.3,2.3,4.0,343.1,0.00,18.0,24.5,"22:47:12",1
"17/09/02","23:00",0.0,21.6,79.5,1002.2,320.9,1.8,2.9,343.7,0.00,17.9,24.4,"22:53:52",1
"17/09/02","23:10",0.0,21.4,80.0,1001.9,327.4,2.0,3.9,335.3,0.00,17.8,24.2,"23:04:48",1
"17/09/02","23:20",0.0,21.1,80.6,1001.9,334.7,1.7,2.8,341.0,0.00,17.7,24.2,"23:14:56",1
"17/09/02","23:30",0.0,20.9,81.9,1002.2,337.1,1.6,2.9,343.4,0.00,17.7,24.4,"23:21:12",1
"17/09/02","23:40",0.0,20.8,82.3,1002.2,330.3,1.3,2.0,316.7,0.00,17.7,24.2,"23:37:36",1
"17/09/02","23:50",0.0,20.9,82.7,1002.2,325.3,1.6,3.6,336.6,0.00,17.9,24.2,"23:45:44",1
"17/09/02","24:00",0.0,21.2,82.2,1001.9,326.4,1.8,2.9,331.3,0.00,18.1,24.2,"23:54:24",1
